Find OneWeb SL0277

NORAD ID: 48995 Int'l Des: 2021-060 Owner: ONEWEBN Country: UK Constellation: oneweb operational
LEOCIRCULARPOLARONEWEB_TYPE

Live Position

Loading 3D Globe...

About OneWeb SL0277

Description loading...

Upcoming Passes

Passes for default location (London). Set your location on the main map for personalized predictions.

Altitude History

Loading altitude history...

Two-Line Element Set

1 48995U 21060AE 26106.41382244 .00000069 00000-0 14612-3 0 9999
2 48995 87.9056 241.0585 0001948 97.1607 262.9746 13.16593616231439
Epoch: Apr 16, 2026 • Age: 20 hours

Current Status

Altitude 1201.0 km
Velocity 7.25 km/s
Sub-Earth Point -1.20°S, 54.37°W
Launch Date Jul 1, 2021
Age 4.7 years
Type internet

Technical Details

Classification Payload
Mass 148.00 kg
Dry Mass 140.00 kg
Total Mass 148.00 kg
Length 1.30 m
Diameter 1.00 m
Span 5.00 m
Shape Trapezoid+2 pan
Manufacturer ONEWUS
Bus Type ARROW
Phase Status In Orbit
Owner/State ONEWEBN/UK

Most Searched